{"data":{"norad_id":66844,"epoch":"2026-09-20T05:16:28.024320Z","epoch_age_seconds":108658,"freshness":"FRESH","line1":"1 66844U 25280Z   26263.21976880  .00001080  00000+0  98282-4 0  9996","line2":"2 66844  70.0003 204.0128 0003224 263.3767  96.7025 14.98328365 45188","mean_motion":14.98328365,"eccentricity":0.0003224,"inclination_deg":70.0003,"raan_deg":204.0128,"arg_perigee_deg":263.3767,"mean_anomaly_deg":96.7025,"bstar":9.8282e-5,"rev_number":4518,"period_min":96.107103999196,"perigee_km":569.82020323351,"apogee_km":574.30169086977,"semimajor_km":6950.1979470516,"source":"CELESTRAK","updated_at":"2026-09-21T09:00:36.024505Z"}}